| time (UTC) | temp F | wind direction | speed MPH | gust MPH | rain 1hr in | rain 24hr in | rain mn in | humidity % | barometer mb |
| 20260904131420 | 57 | 60 | 0.0 | 0.0 | 0.00 | 0.00 | 0.00 | 91 | 1024.5 |
| 20260904130819 | 57 | 57 | 0.0 | 0.0 | 0.00 | 0.00 | 0.00 | 91 | 1024.5 |
| 20260904130220 | 57 | 54 | 0.0 | 0.0 | 0.00 | 0.00 | 0.00 | 91 | 1024.5 |
| 20260904125619 | 56 | 342 | 0.0 | 0.0 | 0.00 | 0.00 | 0.00 | 91 | 1024.5 |
| 20260904125019 | 56 | 342 | 0.0 | 0.0 | 0.00 | 0.00 | 0.00 | 91 | 1024.5 |
| 20260904123820 | 56 | 342 | 0.0 | 0.0 | 0.00 | 0.00 | 0.00 | 91 | 1024.4 |
| 20260904123310 | 56 | 342 | 0.0 | 0.0 | 0.00 | 0.00 | 0.00 | 91 | 1024.3 |
| 20260904122620 | 56 | 342 | 0.0 | 0.0 | 0.00 | 0.00 | 0.00 | 91 | 1024.2 |
| 20260904122019 | 56 | 342 | 0.0 | 0.0 | 0.00 | 0.00 | 0.00 | 91 | 1024.2 |
| 20260904121420 | 56 | 342 | 0.0 | 0.0 | 0.00 | 0.00 | 0.00 | 91 | 1024.2 |
| 20260904120232 | 56 | 163 | 0.0 | 1.0 | 0.00 | 0.00 | 0.00 | 91 | 1024.0 |
| 20260904115644 | 56 | 114 | 0.0 | 2.0 | 0.00 | 0.00 | 0.00 | 91 | 1024.0 |
| 20260904115020 | 56 | 74 | 0.0 | 2.0 | 0.00 | 0.00 | 0.00 | 91 | 1024.0 |
| 20260904114419 | 55 | 37 | 0.0 | 0.0 | 0.00 | 0.00 | 0.00 | 90 | 1023.8 |
| 20260904113820 | 55 | 73 | 0.0 | 0.0 | 0.00 | 0.00 | 0.00 | 91 | 1023.8 |
| 20260904113219 | 55 | 79 | 0.0 | 0.0 | 0.00 | 0.00 | 0.00 | 91 | 1023.8 |
| 20260904112644 | 54 | 30 | 0.0 | 0.0 | 0.00 | 0.00 | 0.00 | 90 | 1023.8 |
| 20260904112019 | 55 | 71 | 0.0 | 0.0 | 0.00 | 0.00 | 0.00 | 90 | 1023.6 |
| 20260904111420 | 55 | 80 | 0.0 | 0.0 | 0.00 | 0.00 | 0.00 | 90 | 1023.6 |
| 20260904110819 | 55 | 145 | 0.0 | 2.0 | 0.00 | 0.00 | 0.00 | 90 | 1023.6 |
| 20260904110219 | 55 | 113 | 1.0 | 1.0 | 0.00 | 0.00 | 0.00 | 90 | 1023.5 |
| 20260904105620 | 55 | 114 | 0.0 | 2.0 | 0.00 | 0.00 | 0.00 | 90 | 1023.5 |
| 20260904105020 | 55 | 122 | 0.0 | 3.0 | 0.00 | 0.00 | 0.00 | 90 | 1023.4 |
| 20260904104419 | 55 | 89 | 2.0 | 3.0 | 0.00 | 0.00 | 0.00 | 89 | 1023.4 |
| 20260904103819 | 56 | 82 | 0.0 | 2.0 | 0.00 | 0.00 | 0.00 | 90 | 1023.4 |
| 20260904103219 | 56 | 80 | 0.0 | 2.0 | 0.00 | 0.00 | 0.00 | 89 | 1023.3 |
| 20260904102620 | 56 | 80 | 0.0 | 3.0 | 0.00 | 0.00 | 0.00 | 89 | 1023.4 |
| 20260904102019 | 56 | 95 | 0.0 | 3.0 | 0.00 | 0.00 | 0.00 | 89 | 1023.3 |
| 20260904101419 | 56 | 113 | 1.0 | 2.0 | 0.00 | 0.00 | 0.00 | 89 | 1023.3 |
| 20260904100820 | 56 | 98 | 0.0 | 2.0 | 0.00 | 0.00 | 0.00 | 89 | 1023.3 |
| 20260904100219 | 56 | 88 | 0.0 | 0.0 | 0.00 | 0.00 | 0.00 | 89 | 1023.4 |
| 20260904095620 | 57 | 86 | 0.0 | 0.0 | 0.00 | 0.01 | 0.00 | 89 | 1023.3 |
| 20260904095019 | 57 | 86 | 0.0 | 4.0 | 0.00 | 0.01 | 0.00 | 89 | 1023.3 |
| 20260904094420 | 57 | 90 | 1.0 | 2.0 | 0.00 | 0.01 | 0.00 | 89 | 1023.3 |
| 20260904093820 | 57 | 57 | 0.0 | 0.0 | 0.00 | 0.01 | 0.00 | 89 | 1023.2 |
| 20260904093219 | 57 | 34 | 0.0 | 1.0 | 0.00 | 0.01 | 0.00 | 89 | 1023.1 |
| 20260904092620 | 56 | 36 | 0.0 | 0.0 | 0.00 | 0.01 | 0.00 | 88 | 1023.1 |
| 20260904092019 | 56 | 99 | 0.0 | 2.0 | 0.00 | 0.01 | 0.00 | 88 | 1023.1 |
| 20260904091419 | 56 | 119 | 0.0 | 4.0 | 0.00 | 0.01 | 0.00 | 88 | 1023.1 |
| 20260904090819 | 56 | 120 | 0.0 | 2.0 | 0.00 | 0.01 | 0.00 | 88 | 1023.1 |
| 20260904090232 | 56 | 100 | 0.0 | 0.0 | 0.00 | 0.01 | 0.00 | 88 | 1023.1 |
| 20260904085620 | 57 | 100 | 0.0 | 2.0 | 0.00 | 0.01 | 0.00 | 87 | 1023.1 |
| 20260904085019 | 57 | 100 | 0.0 | 3.0 | 0.00 | 0.01 | 0.00 | 87 | 1023.2 |
| 20260904084419 | 57 | 106 | 1.0 | 3.0 | 0.00 | 0.01 | 0.00 | 87 | 1023.3 |
| 20260904083820 | 57 | 119 | 0.0 | 2.0 | 0.00 | 0.01 | 0.00 | 86 | 1023.4 |
| 20260904083219 | 58 | 60 | 0.0 | 0.0 | 0.00 | 0.01 | 0.00 | 86 | 1023.3 |
| 20260904082619 | 58 | 22 | 0.0 | 2.0 | 0.00 | 0.01 | 0.00 | 86 | 1023.4 |
| 20260904082019 | 58 | 56 | 0.0 | 2.0 | 0.00 | 0.01 | 0.00 | 86 | 1023.5 |
| 20260904081419 | 58 | 79 | 0.0 | 3.0 | 0.00 | 0.01 | 0.00 | 86 | 1023.6 |
| 20260904080832 | 58 | 93 | 1.0 | 2.0 | 0.00 | 0.01 | 0.00 | 86 | 1023.6 |
| 20260904080220 | 58 | 117 | 0.0 | 3.0 | 0.00 | 0.01 | 0.00 | 86 | 1023.5 |
| 20260904075619 | 59 | 126 | 0.0 | 0.0 | 0.00 | 0.01 | 0.00 | 85 | 1023.6 |
| 20260904075019 | 59 | 50 | 0.0 | 2.0 | 0.00 | 0.01 | 0.00 | 85 | 1023.5 |
| 20260904074420 | 59 | 21 | 0.0 | 0.0 | 0.00 | 0.01 | 0.00 | 85 | 1023.6 |
| 20260904073819 | 59 | 36 | 0.0 | 2.0 | 0.00 | 0.01 | 0.00 | 84 | 1023.7 |
| 20260904073220 | 59 | 50 | 0.0 | 0.0 | 0.00 | 0.01 | 0.00 | 84 | 1023.7 |
| 20260904072620 | 59 | 126 | 0.0 | 6.0 | 0.00 | 0.01 | 0.00 | 84 | 1023.7 |
| 20260904072031 | 58 | 104 | 3.0 | 2.0 | 0.00 | 0.01 | 0.00 | 86 | 1023.8 |
| 20260904071444 | 58 | 288 | 0.0 | 0.0 | 0.00 | 0.01 | 0.00 | 86 | 1023.8 |
| 20260904070820 | 58 | 288 | 0.0 | 0.0 | 0.00 | 0.01 | 0.00 | 86 | 1023.8 |
| 20260904070232 | 58 | 117 | 0.0 | 2.0 | 0.00 | 0.01 | 0.00 | 85 | 1023.8 |
| 20260904065619 | 58 | 77 | 0.0 | 1.0 | 0.00 | 0.01 | 0.00 | 85 | 1023.8 |
| 20260904065019 | 58 | 46 | 0.0 | 6.0 | 0.00 | 0.01 | 0.00 | 85 | 1023.9 |
| 20260904064420 | 58 | 79 | 2.0 | 5.0 | 0.00 | 0.01 | 0.00 | 85 | 1024.0 |
| 20260904063819 | 58 | 81 | 3.0 | 5.0 | 0.00 | 0.01 | 0.00 | 86 | 1024.1 |
| 20260904063219 | 58 | 106 | 0.0 | 0.0 | 0.00 | 0.01 | 0.00 | 86 | 1024.1 |
| 20260904062619 | 58 | 108 | 0.0 | 0.0 | 0.00 | 0.01 | 0.00 | 86 | 1024.0 |
| 20260904062056 | 58 | 72 | 0.0 | 0.0 | 0.00 | 0.01 | 0.00 | 86 | 1024.1 |
| 20260904061419 | 58 | 86 | 0.0 | 0.0 | 0.00 | 0.01 | 0.00 | 85 | 1024.1 |
| 20260904060819 | 57 | 18 | 0.0 | 2.0 | 0.00 | 0.01 | 0.00 | 85 | 1024.0 |
| 20260904060219 | 57 | 0 | 0.0 | 0.0 | 0.00 | 0.01 | 0.02 | 85 | 1024.0 |
| 20260904055645 | 58 | 11 | 0.0 | 2.0 | 0.00 | 0.01 | 0.02 | 85 | 1024.1 |
| 20260904055019 | 58 | 85 | 0.0 | 3.0 | 0.00 | 0.01 | 0.02 | 84 | 1024.0 |
| 20260904054444 | 58 | 69 | 0.0 | 2.0 | 0.00 | 0.01 | 0.02 | 83 | 1024.0 |
| 20260904053819 | 58 | 80 | 0.0 | 2.0 | 0.00 | 0.01 | 0.02 | 83 | 1023.9 |
| 20260904053219 | 58 | 62 | 2.0 | 1.0 | 0.00 | 0.01 | 0.02 | 82 | 1023.9 |
| 20260904052619 | 58 | 137 | 0.0 | 3.0 | 0.00 | 0.01 | 0.02 | 82 | 1023.8 |
| 20260904052019 | 58 | 87 | 0.0 | 3.0 | 0.00 | 0.01 | 0.02 | 82 | 1023.9 |
| 20260904051419 | 58 | 84 | 2.0 | 3.0 | 0.00 | 0.01 | 0.02 | 81 | 1023.9 |
| 20260904050819 | 59 | 80 | 1.0 | 5.0 | 0.00 | 0.01 | 0.02 | 80 | 1023.9 |
| 20260904050219 | 58 | 88 | 3.0 | 6.0 | 0.00 | 0.01 | 0.02 | 81 | 1023.8 |
| 20260904045619 | 58 | 72 | 3.0 | 4.0 | 0.00 | 0.01 | 0.02 | 82 | 1023.8 |
| 20260904045020 | 58 | 95 | 2.0 | 4.0 | 0.00 | 0.01 | 0.02 | 81 | 1023.8 |
| 20260904044444 | 59 | 73 | 0.0 | 4.0 | 0.00 | 0.01 | 0.02 | 80 | 1023.7 |
| 20260904043820 | 60 | 80 | 3.0 | 6.0 | 0.00 | 0.01 | 0.02 | 79 | 1023.8 |
| 20260904043219 | 60 | 74 | 2.0 | 8.0 | 0.00 | 0.01 | 0.02 | 79 | 1023.7 |
| 20260904042620 | 60 | 64 | 5.0 | 7.0 | 0.00 | 0.01 | 0.02 | 79 | 1023.8 |
| 20260904042020 | 59 | 87 | 2.0 | 6.0 | 0.00 | 0.01 | 0.02 | 81 | 1023.8 |
| 20260904040819 | 59 | 76 | 1.0 | 4.0 | 0.00 | 0.01 | 0.02 | 82 | 1023.5 |
| 20260904040220 | 59 | 53 | 3.0 | 4.0 | 0.00 | 0.01 | 0.02 | 82 | 1023.7 |
| 20260904035619 | 59 | 63 | 0.0 | 3.0 | 0.00 | 0.01 | 0.02 | 83 | 1023.7 |
| 20260904035019 | 59 | 57 | 0.0 | 4.0 | 0.00 | 0.01 | 0.02 | 83 | 1023.7 |
| 20260904034420 | 59 | 44 | 2.0 | 4.0 | 0.00 | 0.01 | 0.02 | 83 | 1023.7 |
| 20260904033819 | 59 | 97 | 0.0 | 4.0 | 0.00 | 0.01 | 0.02 | 84 | 1023.7 |
| 20260904033219 | 59 | 82 | 3.0 | 4.0 | 0.00 | 0.01 | 0.02 | 84 | 1023.6 |
| 20260904032620 | 60 | 119 | 3.0 | 3.0 | 0.00 | 0.01 | 0.02 | 83 | 1023.5 |
| 20260904032019 | 60 | 34 | 0.0 | 2.0 | 0.00 | 0.01 | 0.02 | 82 | 1023.4 |
| 20260904031444 | 61 | 40 | 0.0 | 2.0 | 0.00 | 0.01 | 0.02 | 81 | 1023.5 |
| 20260904030819 | 61 | 71 | 0.0 | 2.0 | 0.00 | 0.01 | 0.02 | 81 | 1023.4 |
| 20260904030219 | 62 | 138 | 0.0 | 2.0 | 0.00 | 0.01 | 0.02 | 81 | 1023.4 |
| 20260904025620 | 62 | 70 | 0.0 | 3.0 | 0.00 | 0.01 | 0.02 | 80 | 1023.2 |
| 20260904025020 | 62 | 9 | 0.0 | 3.0 | 0.00 | 0.01 | 0.02 | 81 | 1023.1 |
| 20260904024432 | 63 | 276 | 0.0 | 3.0 | 0.00 | 0.01 | 0.02 | 79 | 1023.0 |
| 20260904023820 | 64 | 131 | 0.0 | 2.0 | 0.00 | 0.01 | 0.02 | 76 | 1023.0 |
| 20260904023219 | 64 | 188 | 0.0 | 0.0 | 0.00 | 0.01 | 0.02 | 75 | 1023.0 |
| 20260904022621 | 65 | 299 | 0.0 | 0.0 | 0.00 | 0.01 | 0.02 | 77 | 1022.9 |
| 20260904022020 | 65 | 299 | 0.0 | 3.0 | 0.00 | 0.01 | 0.02 | 74 | 1022.9 |
| 20260904021419 | 65 | 299 | 2.0 | 5.0 | 0.00 | 0.01 | 0.02 | 75 | 1022.8 |
| 20260904020819 | 64 | 268 | 2.0 | 4.0 | 0.00 | 0.01 | 0.02 | 75 | 1022.7 |
| 20260904020220 | 65 | 101 | 3.0 | 4.0 | 0.00 | 0.01 | 0.02 | 73 | 1022.6 |
| 20260904015631 | 64 | 124 | 0.0 | 0.0 | 0.00 | 0.01 | 0.02 | 75 | 1022.5 |
| 20260904015020 | 64 | 89 | 0.0 | 0.0 | 0.00 | 0.01 | 0.02 | 79 | 1022.3 |
| 20260904014419 | 64 | 44 | 0.0 | 2.0 | 0.00 | 0.01 | 0.02 | 76 | 1022.1 |
| 20260904013819 | 65 | 59 | 0.0 | 0.0 | 0.00 | 0.01 | 0.02 | 70 | 1022.0 |
| 20260904013219 | 65 | 93 | 0.0 | 0.0 | 0.00 | 0.01 | 0.02 | 71 | 1021.8 |
| 20260904012619 | 66 | 105 | 0.0 | 0.0 | 0.00 | 0.01 | 0.02 | 72 | 1021.8 |
| 20260904012019 | 67 | 109 | 0.0 | 0.0 | 0.00 | 0.01 | 0.02 | 70 | 1021.6 |
| 20260904011420 | 68 | 85 | 0.0 | 3.0 | 0.00 | 0.01 | 0.02 | 71 | 1021.6 |
| 20260904010819 | 69 | 0 | 0.0 | 3.0 | 0.00 | 0.01 | 0.02 | 63 | 1021.6 |
| 20260904010219 | 70 | 123 | 0.0 | 3.0 | 0.00 | 0.01 | 0.02 | 63 | 1021.5 |
| 20260904005631 | 71 | 110 | 0.0 | 3.0 | 0.00 | 0.01 | 0.02 | 64 | 1021.6 |
| 20260904005019 | 71 | 110 | 0.0 | 4.0 | 0.00 | 0.01 | 0.02 | 59 | 1021.7 |
| 20260904004419 | 72 | 116 | 0.0 | 7.0 | 0.00 | 0.01 | 0.02 | 57 | 1021.8 |
| 20260904003820 | 73 | 140 | 0.0 | 5.0 | 0.00 | 0.01 | 0.02 | 56 | 1021.8 |
| 20260904003219 | 74 | 190 | 0.0 | 5.0 | 0.00 | 0.01 | 0.02 | 53 | 1021.8 |
| 20260904002619 | 74 | 282 | 0.0 | 7.0 | 0.00 | 0.01 | 0.02 | 53 | 1021.8 |
| 20260904002019 | 74 | 266 | 2.0 | 8.0 | 0.00 | 0.01 | 0.02 | 50 | 1021.9 |
| 20260904001419 | 75 | 257 | 3.0 | 8.0 | 0.00 | 0.02 | 0.02 | 50 | 1021.8 |
| 20260904000819 | 76 | 266 | 3.0 | 7.0 | 0.00 | 0.02 | 0.02 | 49 | 1021.8 |
| 20260904000219 | 76 | 284 | 0.0 | 8.0 | 0.00 | 0.02 | 0.02 | 46 | 1021.8 |
| 20260903235619 | 76 | 181 | 0.0 | 3.0 | 0.00 | 0.02 | 0.02 | 48 | 1021.9 |
| 20260903235019 | 76 | 226 | 0.0 | 5.0 | 0.00 | 0.03 | 0.02 | 46 | 1021.9 |
| 20260903234419 | 75 | 195 | 2.0 | 6.0 | 0.00 | 0.03 | 0.02 | 47 | 1022.0 |
| 20260903233819 | 75 | 240 | 0.0 | 8.0 | 0.00 | 0.04 | 0.02 | 46 | 1022.1 |
| 20260903233220 | 76 | 292 | 2.0 | 10.0 | 0.00 | 0.06 | 0.02 | 49 | 1022.1 |
| 20260903232619 | 76 | 292 | 2.0 | 7.0 | 0.00 | 0.12 | 0.02 | 49 | 1022.1 |
| 20260903232019 | 76 | 236 | 1.0 | 7.0 | 0.00 | 0.19 | 0.02 | 47 | 1022.1 |
| 20260903231419 | 76 | 185 | 1.0 | 8.0 | 0.00 | 0.29 | 0.02 | 48 | 1022.1 |
| 20260903230819 | 76 | 240 | 3.0 | 8.0 | 0.00 | 0.31 | 0.02 | 48 | 1022.0 |
| 20260903230220 | 76 | 194 | 2.0 | 8.0 | 0.00 | 0.31 | 0.02 | 49 | 1022.0 |
| 20260903225645 | 76 | 250 | 3.0 | 10.0 | 0.00 | 0.31 | 0.02 | 47 | 1022.0 |